| time (UTC) | temp F | wind direction | speed MPH | gust MPH | rain 1hr in | rain 24hr in | rain mn in | humidity % | barometer mb |
| 20260507120018 | 55 | 24 | 0.0 | 0.0 | 0.00 | 0.27 | 0.06 | 83 | 1011.1 |
| 20260507114540 | 55 | 33 | 0.0 | 0.0 | 0.00 | 0.27 | 0.06 | 85 | 1011.0 |
| 20260507111532 | 55 | 323 | 0.0 | 0.0 | 0.00 | 0.27 | 0.06 | 86 | 1010.8 |
| 20260507110057 | 54 | 323 | 0.0 | 0.0 | 0.00 | 0.27 | 0.06 | 86 | 1010.8 |
| 20260507104547 | 54 | 323 | 0.0 | 0.0 | 0.00 | 0.27 | 0.06 | 86 | 1010.6 |
| 20260507101550 | 55 | 29 | 0.0 | 0.0 | 0.00 | 0.27 | 0.06 | 86 | 1010.2 |
| 20260507094547 | 55 | 306 | 0.0 | 0.0 | 0.00 | 0.27 | 0.06 | 86 | 1010.2 |
| 20260507093055 | 55 | 306 | 0.0 | 0.0 | 0.00 | 0.27 | 0.06 | 86 | 1009.9 |
| 20260507091535 | 55 | 306 | 0.0 | 0.0 | 0.00 | 0.27 | 0.06 | 86 | 1010.0 |
| 20260507084608 | 55 | 306 | 0.0 | 0.0 | 0.00 | 0.27 | 0.06 | 86 | 1009.8 |
| 20260507083134 | 55 | 306 | 0.0 | 0.0 | 0.00 | 0.27 | 0.06 | 86 | 1009.8 |
| 20260507081519 | 55 | 306 | 0.0 | 0.0 | 0.00 | 0.27 | 0.06 | 86 | 1009.3 |
| 20260507074538 | 56 | 275 | 0.0 | 0.0 | 0.00 | 0.27 | 0.06 | 87 | 1009.1 |
| 20260507071607 | 57 | 5 | 0.0 | 0.0 | 0.00 | 0.27 | 0.06 | 88 | 1008.9 |
| 20260507070122 | 57 | 39 | 0.0 | 0.0 | 0.01 | 0.27 | 0.06 | 88 | 1008.6 |
| 20260507064641 | 57 | 267 | 0.0 | 0.0 | 0.01 | 0.27 | 0.06 | 87 | 1008.9 |
| 20260507063049 | 57 | 142 | 0.0 | 0.0 | 0.01 | 0.27 | 0.06 | 87 | 1008.7 |
| 20260507061551 | 57 | 334 | 0.0 | 0.0 | 0.01 | 0.27 | 0.06 | 86 | 1008.6 |
| 20260507060035 | 58 | 248 | 0.0 | 0.0 | 0.01 | 0.26 | 0.05 | 86 | 1008.9 |
| 20260507054527 | 58 | 193 | 0.0 | 0.0 | 0.02 | 0.26 | 0.05 | 85 | 1008.7 |
| 20260507053022 | 59 | 348 | 0.0 | 0.0 | 0.04 | 0.26 | 0.05 | 83 | 1008.9 |
| 20260507044539 | 62 | 263 | 0.0 | 0.0 | 0.03 | 0.24 | 0.03 | 77 | 1008.7 |
| 20260507043045 | 63 | 281 | 0.0 | 0.0 | 0.01 | 0.22 | 0.01 | 74 | 1008.9 |
| 20260507041545 | 63 | 338 | 0.0 | 0.0 | 0.00 | 0.21 | 0.00 | 74 | 1008.6 |
| 20260507034628 | 64 | 28 | 0.0 | 0.0 | 0.00 | 0.21 | 0.21 | 75 | 1008.1 |
| 20260507033055 | 65 | 300 | 0.0 | 0.0 | 0.00 | 0.21 | 0.21 | 76 | 1008.3 |
| 20260507030049 | 66 | 322 | 0.0 | 0.0 | 0.00 | 0.21 | 0.21 | 73 | 1007.8 |
| 20260507024533 | 66 | 281 | 0.0 | 1.0 | 0.00 | 0.21 | 0.21 | 74 | 1007.8 |
| 20260507023102 | 67 | 12 | 0.0 | 0.0 | 0.00 | 0.21 | 0.21 | 75 | 1007.6 |
| 20260507021648 | 67 | 257 | 0.0 | 0.0 | 0.00 | 0.21 | 0.21 | 74 | 1007.4 |
| 20260507020009 | 67 | 245 | 0.0 | 0.0 | 0.00 | 0.21 | 0.21 | 76 | 1007.1 |
| 20260507013008 | 68 | 156 | 0.0 | 0.0 | 0.00 | 0.21 | 0.21 | 80 | 1007.3 |
| 20260507011546 | 68 | 156 | 0.0 | 0.0 | 0.00 | 0.21 | 0.21 | 80 | 1007.2 |
| 20260507010014 | 68 | 156 | 0.0 | 0.0 | 0.00 | 0.21 | 0.21 | 79 | 1007.3 |
| 20260507004545 | 68 | 156 | 0.0 | 0.0 | 0.00 | 0.21 | 0.21 | 78 | 1007.0 |
| 20260507001556 | 69 | 156 | 0.0 | 0.0 | 0.00 | 0.21 | 0.21 | 78 | 1006.8 |
| 20260506234636 | 69 | 156 | 0.0 | 0.0 | 0.00 | 0.21 | 0.21 | 76 | 1006.8 |
| 20260506233011 | 69 | 106 | 0.0 | 0.0 | 0.00 | 0.21 | 0.21 | 76 | 1006.6 |
| 20260506231536 | 70 | 200 | 0.0 | 0.0 | 0.00 | 0.21 | 0.21 | 75 | 1006.3 |
| 20260506230112 | 70 | 148 | 0.0 | 0.0 | 0.00 | 0.21 | 0.21 | 75 | 1006.1 |
| 20260506224550 | 70 | 204 | 0.0 | 0.0 | 0.00 | 0.21 | 0.21 | 75 | 1006.4 |
| 20260506214602 | 71 | 139 | 0.0 | 0.0 | 0.00 | 0.21 | 0.21 | 72 | 1006.2 |
| 20260506213048 | 72 | 180 | 0.0 | 0.0 | 0.00 | 0.21 | 0.21 | 71 | 1006.1 |
| 20260506211508 | 72 | 117 | 0.0 | 0.0 | 0.00 | 0.21 | 0.21 | 72 | 1006.0 |
| 20260506210040 | 71 | 122 | 0.0 | 1.0 | 0.00 | 0.21 | 0.21 | 73 | 1005.6 |
| 20260506204516 | 71 | 190 | 0.0 | 0.0 | 0.00 | 0.21 | 0.21 | 74 | 1005.7 |
| 20260506203035 | 70 | 184 | 0.0 | 1.0 | 0.00 | 0.21 | 0.21 | 74 | 1005.6 |
| 20260506201608 | 70 | 157 | 0.0 | 0.0 | 0.00 | 0.21 | 0.21 | 74 | 1005.6 |
| 20260506200150 | 70 | 107 | 0.0 | 0.0 | 0.00 | 0.21 | 0.21 | 74 | 1005.8 |
| 20260506194615 | 70 | 200 | 0.0 | 0.0 | 0.00 | 0.21 | 0.21 | 73 | 1005.9 |
| 20260506193033 | 70 | 70 | 0.0 | 0.0 | 0.00 | 0.21 | 0.21 | 74 | 1006.1 |
| 20260506184544 | 68 | 196 | 0.0 | 0.0 | 0.00 | 0.21 | 0.21 | 77 | 1006.2 |
| 20260506183038 | 68 | 224 | 0.0 | 0.0 | 0.00 | 0.21 | 0.21 | 77 | 1006.5 |
| 20260506181605 | 68 | 113 | 0.0 | 0.0 | 0.00 | 0.21 | 0.21 | 77 | 1006.5 |
| 20260506180025 | 67 | 132 | 0.0 | 0.0 | 0.00 | 0.21 | 0.21 | 80 | 1006.7 |
| 20260506174601 | 66 | 186 | 0.0 | 0.0 | 0.00 | 0.21 | 0.21 | 81 | 1006.9 |
| 20260506171543 | 65 | 24 | 0.0 | 0.0 | 0.00 | 0.21 | 0.21 | 84 | 1007.0 |
| 20260506170020 | 64 | 134 | 0.0 | 0.0 | 0.00 | 0.21 | 0.21 | 86 | 1007.1 |
| 20260506164640 | 64 | 148 | 0.0 | 0.0 | 0.00 | 0.21 | 0.21 | 87 | 1006.9 |
| 20260506163056 | 63 | 192 | 0.0 | 0.0 | 0.00 | 0.21 | 0.21 | 88 | 1007.2 |
| 20260506161622 | 63 | 213 | 0.0 | 0.0 | 0.02 | 0.21 | 0.21 | 89 | 1007.2 |
| 20260506160125 | 63 | 100 | 0.0 | 0.0 | 0.03 | 0.21 | 0.21 | 89 | 1007.3 |
| 20260506154600 | 62 | 198 | 0.0 | 0.0 | 0.04 | 0.21 | 0.21 | 89 | 1007.4 |
| 20260506151507 | 62 | 138 | 0.0 | 0.0 | 0.08 | 0.19 | 0.19 | 88 | 1007.6 |
| 20260506150038 | 62 | 163 | 0.0 | 0.0 | 0.10 | 0.18 | 0.18 | 87 | 1008.1 |
| 20260506144642 | 62 | 136 | 0.0 | 0.0 | 0.11 | 0.17 | 0.17 | 87 | 1008.3 |
| 20260506143005 | 62 | 126 | 0.0 | 0.0 | 0.15 | 0.16 | 0.16 | 86 | 1008.3 |
| 20260506141511 | 62 | 138 | 0.0 | 0.0 | 0.11 | 0.11 | 0.11 | 84 | 1008.2 |
| 20260506140018 | 63 | 128 | 0.0 | 0.0 | 0.08 | 0.08 | 0.08 | 83 | 1008.2 |
| 20260506134700 | 63 | 144 | 0.0 | 0.0 | 0.06 | 0.06 | 0.06 | 82 | 1008.4 |
| 20260506133128 | 64 | 165 | 0.0 | 0.0 | 0.01 | 0.01 | 0.02 | 80 | 1008.6 |
| 20260506131528 | 64 | 191 | 0.0 | 0.0 | 0.00 | 0.00 | 0.00 | 80 | 1008.5 |
| 20260506130047 | 64 | 193 | 0.0 | 0.0 | 0.00 | 0.00 | 0.00 | 78 | 1008.1 |
| 20260506124529 | 65 | 142 | 0.0 | 0.0 | 0.00 | 0.00 | 0.00 | 78 | 1007.8 |
| 20260506121600 | 66 | 213 | 0.0 | 0.0 | 0.00 | 0.00 | 0.00 | 74 | 1008.3 |